Location: Chełm
(51.1339°N, 23.4725°E)
Time: 01:08:58
(UTC+01:00)

ISS - Pass Details

Date: 30 January 2019
Orbit: 403 x 411 km, 51.6° (Epoch: 19 February)

Event Time Altitude Azimuth Distance (km) Brightness Sun altitude
Rises 19:03:05 0° 278° (W) 2,340 1.4 -26.7°
Reaches altitude 10° 19:05:10 10° 279° (W) 1,479 0.0 -27.0°
Enters shadow 19:06:31 22° 280° (W) 943 -1.3 -27.2°
